Latest Weather Observations for Coolangatta

IDQ60801

Issued at 11:02 pm EST Sunday 1 February 2015 (issued every 30 minutes, with the page automatically refreshed every 10 minutes)

About weather observations | Map of weather stations | Latest weather observations for QLD | Other Formats
Station Details ID: 040717 Name: COOLANGATTA Lat: -28.17 Lon: 153.51 Height: 4.0 m
Data from the previous 72 hours. | See also: Recent months at Coolangatta
Date/Time
EST
Temp
°C
App
Temp
°C
Dew
Point
Rel
Hum
%
Delta-T
°C
Wind Press
QNH
hPa
Press
MSL
hPa
Rain
since 9 am
mm
Dir
 
Spd
km/h
Gust
km/h
Spd
kts
Gust
kts
01/11:00pm 22.1 22.9 19.8 87 1.5 E 15 30 8 16 1008.5 1008.4 1.4
01/10:47pm 23.2 22.1 18.7 76 2.8 NNE 22 39 12 21 1008.4 1008.3 0.0
01/10:36pm 22.2 18.5 19.2 83 1.9 N 37 56 20 30 1008.0 1007.9 0.0
01/10:35pm 22.3 19.4 19.3 83 1.9 N 33 56 18 30 1007.8 1007.7 0.0
01/10:30pm 23.1 22.5 18.4 75 3.0 NE 19 48 10 26 1008.2 1008.1 0.0
01/10:28pm 24.4 25.8 19.5 74 3.2 ENE 11 41 6 22 1008.3 1008.2 0.0
01/10:00pm 23.7 26.2 21.8 89 1.3 WSW 11 17 6 9 1008.0 1007.9 0.0
01/09:00pm 23.7 26.9 21.6 88 1.4 WSW 7 11 4 6 1007.9 1007.8 0.0
01/08:30pm 24.3 27.8 21.8 86 1.7 S 6 7 3 4 1007.7 1007.6 0.0
01/08:00pm 24.6 27.9 21.5 83 2.1 SSE 6 9 3 5 1007.4 1007.3 0.0
01/07:30pm 25.6 28.7 21.5 78 2.7 ESE 7 13 4 7 1007.3 1007.2 0.0
01/07:00pm 26.0 28.7 21.4 76 3.1 E 9 11 5 6 1007.1 1007.0 0.0
01/06:30pm 26.2 28.5 21.4 75 3.2 E 11 17 6 9 1006.8 1006.7 0.0
01/06:00pm 26.7 28.5 21.2 72 3.7 ENE 13 19 7 10 1006.4 1006.3 0.0
01/05:30pm 27.4 29.2 21.2 69 4.1 E 13 20 7 11 1005.9 1005.8 0.0
01/05:00pm 27.6 28.3 20.4 65 4.7 ESE 17 22 9 12 1005.4 1005.3 0.0
01/04:30pm 28.0 28.9 20.8 65 4.8 ESE 17 22 9 12 1005.1 1005.0 0.0
01/04:00pm 28.1 29.3 21.4 67 4.5 ENE 17 24 9 13 1005.0 1004.9 0.0
01/03:30pm 28.6 29.8 21.4 65 4.8 ENE 17 20 9 11 1004.9 1004.8 0.0
01/03:00pm 28.1 29.0 20.9 65 4.8 ENE 17 22 9 12 1004.9 1004.8 0.0
01/02:30pm 28.5 29.5 21.0 64 5.0 E 17 20 9 11 1005.1 1005.0 0.0
01/02:00pm 28.0 28.7 21.5 67 4.4 ENE 20 26 11 14 1005.5 1005.4 0.0
01/01:30pm 27.7 27.7 21.0 67 4.4 ENE 22 28 12 15 1005.7 1005.6 0.0
01/01:00pm 28.0 28.5 20.8 65 4.8 ENE 19 26 10 14 1005.8 1005.7 0.0
01/12:30pm 28.0 28.8 21.3 67 4.5 ENE 19 24 10 13 1006.3 1006.2 0.0
01/12:00pm 27.9 28.6 21.2 67 4.5 ENE 19 22 10 12 1006.5 1006.4 0.0
01/11:30am 27.4 28.1 21.2 69 4.1 NE 19 22 10 12 1006.9 1006.8 0.0
01/11:00am 27.4 28.2 21.4 70 4.0 NE 19 24 10 13 1007.3 1007.2 0.0
01/10:30am 27.3 28.3 21.1 69 4.1 NE 17 20 9 11 1007.5 1007.4 0.0
01/10:00am 27.5 28.9 21.8 71 3.8 NNE 17 20 9 11 1007.7 1007.6 0.0
01/09:30am 27.2 28.8 20.8 68 4.2 NNE 13 17 7 9 1007.6 1007.5 0.0
01/09:00am 26.3 28.4 19.4 66 4.5 N 7 11 4 6 1007.7 1007.6 1.4
01/08:30am 26.5 28.2 19.4 65 4.6 NNE 9 13 5 7 1007.7 1007.6 1.4
01/08:00am 26.0 28.3 19.4 67 4.3 WNW 6 9 3 5 1007.5 1007.4 1.4
01/07:30am 25.2 28.3 19.6 71 3.6 S 2 7 1 4 1007.3 1007.2 1.4
01/07:00am 24.2 26.5 19.5 75 3.0 SW 6 7 3 4 1007.2 1007.1 1.4
01/06:30am 22.7 25.1 19.7 83 1.9 SSW 6 9 3 5 1007.0 1006.9 1.4
01/06:00am 21.0 23.9 19.8 93 0.8 SW 4 7 2 4 1006.7 1006.6 1.4
01/05:30am 20.1 22.2 18.9 93 0.8 WSW 6 7 3 4 1006.5 1006.4 1.4
01/05:00am 20.2 22.2 18.7 91 0.9 S 6 7 3 4 1006.1 1006.0 1.4
01/04:30am 20.9 24.2 19.2 90 1.1 CALM 0 0 0 0 1005.9 1005.8 1.4
01/04:00am 21.4 24.9 19.5 89 1.2 CALM 0 0 0 0 1005.8 1005.7 1.4
01/03:30am 21.5 24.7 19.8 90 1.1 S 2 6 1 3 1005.8 1005.7 1.4
01/03:00am 20.7 22.7 18.8 89 1.2 SW 6 9 3 5 1005.7 1005.6 1.4
01/02:30am 21.1 23.2 19.4 90 1.1 WSW 7 11 4 6 1005.5 1005.4 1.4
01/02:00am 21.3 23.1 18.7 85 1.6 WNW 7 9 4 5 1005.7 1005.6 1.4
01/01:30am 22.8 24.8 19.2 80 2.3 WNW 7 9 4 5 1006.1 1006.0 1.4
01/01:00am 23.5 25.1 19.2 77 2.7 W 9 13 5 7 1006.2 1006.1 1.4
01/12:30am 23.3 25.0 18.6 75 3.0 W 7 11 4 6 1006.3 1006.2 1.4
01/12:00am 23.3 23.7 18.2 73 3.2 WNW 13 17 7 9 1006.4 1006.3 1.4
 
Date/Time
EST
Temp
°C
App
Temp
°C
Dew
Point
Rel
Hum
%
Delta-T
°C
Wind Press
QNH
hPa
Press
MSL
hPa
Rain
since 9 am
mm
Dir
 
Spd
km/h
Gust
km/h
Spd
kts
Gust
kts
31/11:30pm 23.5 23.8 17.9 71 3.5 WNW 13 20 7 11 1006.6 1006.5 1.4
31/11:00pm 23.4 23.0 18.1 72 3.3 WNW 17 20 9 11 1007.0 1006.9 1.4
31/10:30pm 23.4 23.0 18.1 72 3.3 WNW 17 24 9 13 1007.0 1006.9 1.4
31/10:00pm 23.0 22.2 18.1 74 3.1 WNW 19 24 10 13 1007.2 1007.1 1.4
31/09:30pm 22.2 21.7 17.8 76 2.7 WNW 17 20 9 11 1007.2 1007.1 1.4
31/09:00pm 21.8 21.6 16.7 73 3.1 NW 13 20 7 11 1007.0 1006.9 1.4
31/08:30pm 21.0 21.4 17.2 79 2.3 WNW 11 17 6 9 1006.8 1006.7 1.4
31/08:00pm 20.9 21.0 17.5 81 2.1 WNW 13 15 7 8 1006.6 1006.5 1.4
31/07:30pm 20.6 21.2 17.6 83 1.8 WNW 11 15 6 8 1006.3 1006.2 1.4
31/07:00pm 21.3 21.5 17.7 80 2.2 NW 13 15 7 8 1006.1 1006.0 1.4
31/06:30pm 22.2 22.5 18.0 77 2.6 NW 13 20 7 11 1005.5 1005.4 1.4
31/06:00pm 22.7 21.7 17.6 73 3.2 NW 19 28 10 15 1004.8 1004.7 1.4
31/05:30pm 23.8 22.0 18.7 73 3.2 NNW 26 41 14 22 1004.6 1004.5 1.4
31/05:27pm 24.0 21.3 18.4 71 3.5 NW 30 48 16 26 1004.5 1004.4 1.4
31/05:18pm 24.5 22.0 18.0 67 4.1 NW 28 48 15 26 1004.4 1004.3 1.4
31/05:00pm 26.7 26.3 18.8 62 5.1 N 19 26 10 14 1003.5 1003.4 1.4
31/04:38pm 24.5 21.1 19.8 75 3.0 NNE 37 54 20 29 1002.6 1002.5 1.2
31/04:30pm 23.8 20.1 21.5 87 1.5 N 43 54 23 29 1002.3 1002.2 1.2
31/04:12pm 24.4 24.8 22.5 89 1.3 NNW 24 41 13 22 1003.8 1003.7 1.0
31/04:03pm 23.1 23.3 19.3 79 2.4 NW 17 26 9 14 1004.5 1004.4 0.4
31/04:00pm 23.1 23.4 19.5 80 2.3 NW 17 26 9 14 1004.5 1004.4 0.2
31/03:47pm 24.9 24.5 21.6 82 2.2 N 26 39 14 21 1004.1 1004.0 0.2
31/03:30pm 26.7 24.9 21.5 73 3.5 N 33 43 18 23 1003.8 1003.7 0.0
31/03:00pm 27.5 24.9 21.5 70 4.0 N 37 46 20 25 1003.5 1003.4 0.0
31/02:30pm 28.5 27.1 22.3 69 4.2 N 33 44 18 24 1003.6 1003.5 0.0
31/02:00pm 28.3 26.7 21.8 68 4.4 N 33 44 18 24 1004.1 1004.0 0.0
31/01:30pm 28.8 27.1 22.5 68 4.3 N 35 43 19 23 1004.6 1004.5 0.0
31/01:00pm 28.4 27.8 22.6 71 3.9 NE 30 43 16 23 1005.1 1005.0 0.0
31/12:30pm 28.2 26.2 20.7 63 5.0 NNE 32 39 17 21 1005.5 1005.4 0.0
31/12:00pm 27.9 26.4 21.0 66 4.6 NNE 30 37 16 20 1005.8 1005.7 0.0
31/11:30am 28.2 26.4 21.2 65 4.7 N 32 39 17 21 1006.2 1006.1 0.0
31/11:00am 27.3 25.9 21.1 69 4.1 N 30 37 16 20 1006.6 1006.5 0.0
31/10:30am 27.1 25.1 20.7 68 4.2 N 32 39 17 21 1006.8 1006.7 0.0
31/10:00am 27.4 25.9 20.2 65 4.7 N 28 35 15 19 1007.2 1007.1 0.0
31/09:30am 27.0 25.9 20.3 66 4.4 N 26 32 14 17 1007.4 1007.3 0.0
31/09:00am 26.3 25.6 20.2 69 4.0 N 24 32 13 17 1007.5 1007.4 0.0
31/08:30am 26.4 25.5 19.8 67 4.3 N 24 30 13 16 1007.5 1007.4 0.0
31/08:00am 26.2 25.9 19.1 65 4.6 NNW 19 26 10 14 1007.6 1007.5 0.0
31/07:30am 25.6 25.6 19.0 67 4.2 NNW 17 24 9 13 1007.9 1007.8 0.0
31/07:00am 24.9 25.2 18.8 69 3.9 NW 15 24 8 13 1007.7 1007.6 0.0
31/06:30am 23.8 24.4 18.7 73 3.2 NNW 13 15 7 8 1007.5 1007.4 0.0
31/06:00am 22.8 22.8 18.1 75 2.9 NNW 15 17 8 9 1007.1 1007.0 0.0
31/05:30am 22.2 21.7 17.8 76 2.7 NNW 17 20 9 11 1007.0 1006.9 0.0
31/05:00am 22.1 22.0 17.9 77 2.6 NNW 15 20 8 11 1006.6 1006.5 0.0
31/04:30am 21.8 22.1 17.8 78 2.5 NNW 13 17 7 9 1006.4 1006.3 0.0
31/04:00am 21.8 22.8 17.8 78 2.5 NW 9 13 5 7 1006.3 1006.2 0.0
31/03:30am 22.1 22.7 17.7 76 2.7 NW 11 20 6 11 1006.3 1006.2 0.0
31/03:00am 22.1 22.9 18.1 78 2.5 NW 11 17 6 9 1006.2 1006.1 0.0
31/02:30am 22.0 22.0 18.2 79 2.4 NW 15 19 8 10 1006.2 1006.1 0.0
31/02:00am 22.1 22.7 18.5 80 2.3 NW 13 17 7 9 1006.3 1006.2 0.0
31/01:30am 22.2 22.8 18.6 80 2.3 NW 13 17 7 9 1006.7 1006.6 0.0
31/01:00am 22.2 23.4 19.0 82 2.0 NW 11 19 6 10 1006.9 1006.8 0.0
31/12:30am 21.9 23.4 18.9 83 1.9 NW 9 13 5 7 1007.1 1007.0 0.0
31/12:00am 21.9 23.4 18.9 83 1.9 NW 9 15 5 8 1007.4 1007.3 0.0
 
Date/Time
EST
Temp
°C
App
Temp
°C
Dew
Point
Rel
Hum
%
Delta-T
°C
Wind Press
QNH
hPa
Press
MSL
hPa
Rain
since 9 am
mm
Dir
 
Spd
km/h
Gust
km/h
Spd
kts
Gust
kts
30/11:30pm 22.1 23.5 18.7 81 2.1 NNW 9 13 5 7 1007.6 1007.5 0.0
30/11:00pm 22.1 23.6 18.9 82 2.0 NW 9 13 5 7 1007.8 1007.7 0.0
30/10:30pm 22.3 23.7 18.7 80 2.3 NW 9 13 5 7 1008.0 1007.9 0.0
30/10:00pm 22.5 23.4 18.5 78 2.5 NW 11 13 6 7 1008.0 1007.9 0.0
30/09:30pm 23.6 24.2 18.5 73 3.2 NW 13 20 7 11 1008.0 1007.9 0.0
30/09:00pm 24.0 23.8 18.4 71 3.5 NNW 17 30 9 16 1007.9 1007.8 0.0
30/08:30pm 24.2 23.9 19.1 73 3.3 NNW 19 28 10 15 1007.6 1007.5 0.0
30/08:00pm 24.5 23.3 19.3 73 3.3 NNW 24 32 13 17 1007.4 1007.3 0.0
30/07:30pm 24.6 22.7 19.4 73 3.3 N 28 35 15 19 1007.3 1007.2 0.0
30/07:00pm 24.8 22.9 19.4 72 3.5 N 28 35 15 19 1007.0 1006.9 0.0
30/06:30pm 24.9 22.6 19.3 71 3.6 N 30 35 16 19 1006.7 1006.6 0.0
30/06:00pm 25.1 22.7 19.0 69 3.9 N 30 37 16 20 1006.4 1006.3 0.0
30/05:30pm 25.8 23.7 19.0 66 4.4 N 28 35 15 19 1006.2 1006.1 0.0
30/05:00pm 26.1 24.0 19.0 65 4.6 N 28 35 15 19 1006.1 1006.0 0.0
30/04:30pm 26.6 24.5 19.0 63 4.9 N 28 35 15 19 1005.9 1005.8 0.0
30/04:00pm 26.6 23.8 18.2 60 5.3 N 30 39 16 21 1006.0 1005.9 0.0
30/03:30pm 26.6 23.8 18.2 60 5.3 N 30 37 16 20 1006.2 1006.1 0.0
30/03:00pm 27.2 24.4 18.2 58 5.7 N 30 37 16 20 1006.4 1006.3 0.0
30/02:30pm 27.3 25.3 19.1 61 5.3 N 28 33 15 18 1006.7 1006.6 0.0
30/02:00pm 27.5 26.1 19.6 62 5.1 NNE 26 33 14 18 1007.0 1006.9 0.0
30/01:30pm 27.0 25.2 18.8 60 5.3 NNE 26 32 14 17 1007.4 1007.3 0.0
30/01:00pm 26.5 24.5 18.4 61 5.2 NNE 26 32 14 17 1007.7 1007.6 0.0
30/12:30pm 26.2 24.5 18.1 61 5.1 NNE 24 28 13 15 1008.3 1008.2 0.0
30/12:00pm 26.5 25.4 18.6 62 5.0 NNE 22 26 12 14 1008.6 1008.5 0.0
30/11:30am 26.5 26.1 18.9 63 4.9 NNE 19 24 10 13 1009.0 1008.9 0.0
30/11:00am 25.9 25.3 17.5 59 5.3 NNE 17 22 9 12 1009.1 1009.0 0.0
30/10:30am 25.5 24.9 16.6 58 5.5 NNE 15 19 8 10 1009.5 1009.4 0.0
30/10:00am 25.4 24.6 15.1 53 6.2 NNE 13 19 7 10 1009.8 1009.7 0.0
30/09:30am 25.3 25.6 15.9 56 5.7 N 9 13 5 7 1009.7 1009.6 0.0
30/09:00am 26.0 26.9 16.5 55 5.9 ENE 7 9 4 5 1009.8 1009.7 0.8
30/08:30am 24.8 25.2 16.2 58 5.3 S 9 11 5 6 1009.8 1009.7 0.8
30/08:00am 23.8 24.4 16.8 65 4.3 SW 9 11 5 6 1009.8 1009.7 0.8
30/07:30am 22.5 23.6 17.2 72 3.3 WSW 7 9 4 5 1009.8 1009.7 0.8
30/07:00am 20.9 22.0 17.9 83 1.9 WSW 9 11 5 6 1009.8 1009.7 0.8
30/06:30am 19.5 19.7 17.6 89 1.2 SW 13 17 7 9 1009.5 1009.4 0.8
30/06:00am 18.4 19.5 17.2 93 0.7 SSW 7 13 4 7 1009.4 1009.3 0.8
30/05:30am 18.2 18.1 17.0 93 0.7 WSW 13 17 7 9 1009.1 1009.0 0.8
30/05:00am 18.2 19.0 17.2 94 0.6 SW 9 13 5 7 1008.9 1008.8 0.8
30/04:30am 18.5 18.6 17.5 94 0.6 WSW 13 15 7 8 1008.8 1008.7 0.8
30/04:00am 18.5 20.6 17.2 92 0.8 SW 2 7 1 4 1009.0 1008.9 0.8
30/03:30am 18.8 21.4 17.6 93 0.7 CALM 0 0 0 0 1009.0 1008.9 0.8
30/03:00am 18.9 20.2 17.6 92 0.8 S 7 11 4 6 1009.2 1009.1 0.8
30/02:30am 19.3 20.8 18.0 92 0.8 SW 7 9 4 5 1009.3 1009.2 0.8
30/02:00am 19.8 21.1 18.5 92 0.8 SW 9 11 5 6 1009.5 1009.4 0.8
30/01:30am 19.7 21.0 18.4 92 0.8 WSW 9 11 5 6 1009.8 1009.7 0.8
30/01:00am 19.8 21.0 18.3 91 0.9 W 9 11 5 6 1010.3 1010.2 0.6
30/12:53am 20.0 20.9 18.5 91 0.9 WSW 11 15 6 8 1010.3 1010.2 0.6
30/12:32am 20.2 20.7 18.3 89 1.2 SW 13 19 7 10 1010.4 1010.3 0.4
30/12:30am 20.3 20.9 18.6 90 1.1 SW 13 19 7 10 1010.4 1010.3 0.4
30/12:00am 20.8 21.4 17.8 83 1.9 SSW 11 15 6 8 1010.3 1010.2 0.4
 
Date/Time
EST
Temp
°C
App
Temp
°C
Dew
Point
Rel
Hum
%
Delta-T
°C
Wind Press
QNH
hPa
Press
MSL
hPa
Rain
since 9 am
mm
Dir
 
Spd
km/h
Gust
km/h
Spd
kts
Gust
kts
29/11:30pm 20.7 21.8 17.9 84 1.7 SSW 9 17 5 9 1010.5 1010.4 0.4

Other Formats:

Comma delimited format used in spreadsheet applications
http://www.bom.gov.au/fwo/IDQ60801/IDQ60801.94592.axf

JavaScript Object Notation format (JSON) in row-major order
http://www.bom.gov.au/fwo/IDQ60801/IDQ60801.94592.json